Hourly Data Report for October 14, 2012

All times are specified in Local Standard Time (LST). Add 1 hour to adjust for Daylight Saving Time where and when it is observed.

KITCHENER/WATERLOO
ONTARIO

43°27'39.000" N
80°22'43.000" W
321.60 m
6144239
71368
YKF

Download Data

Hourly Data (October 2012)
Hourly Data Report for October 14, 2012
Temp Definition
°C
Dew Point Temp Definition
°C
Rel Hum Definition
%
Wind Dir Definition
10's deg

Wind Spd Definition
km/h
Visibility Definition
km
Stn Press Definition
kPa
Hmdx Definition


Wind Chill Definition


Weather Definition


TIME
00:00 Legend Double Dagger 12.6 12.1 97 21 22 4.8 97.34     LegendNANA
01:00 Legend Double Dagger 13.5 12.9 96 22 24 8.1 97.30     LegendNANA
02:00 Legend Double Dagger 14.4 13.9 97 22 22 4.8 97.28     LegendNANA
03:00 Legend Double Dagger 15.1 14.5 96 22 22 4.8 97.25     LegendNANA
04:00 Legend Double Dagger 15.7 15.1 96 22 30 3.6 97.27     LegendNANA
05:00 Legend Double Dagger 15.9 15.3 96 23 22 2.8 97.26     LegendNANA
06:00 Legend Double Dagger 16.1 15.6 97 22 22 4.8 97.29     LegendNANA
07:00 Legend Double Dagger 16.5 15.9 96 22 21 4.8 97.30     LegendNANA
08:00 Legend Double Dagger 16.6 16.0 96 21 24 4.8 97.31     LegendNANA
09:00 Legend Double Dagger 16.6 15.6 94 20 22 8.1 97.28     LegendNANA
10:00 Legend Double Dagger 16.7 15.3 91 21 24 12.9 97.25     LegendNANA
11:00 Legend Double Dagger 17.5 15.4 87 20 26 16.1 97.14     LegendNANA
12:00 Legend Double Dagger 17.8 15.0 84 20 30 16.1 97.06     LegendNANA
13:00 Legend Double Dagger 19.4 15.0 75 19 32 16.1 96.90     LegendNANA
14:00 Legend Double Dagger 20.3 14.8 70 19 28 16.1 96.79     LegendNANA
15:00 Legend Double Dagger 19.9 14.2 69 20 30 16.1 96.77     LegendNANA
16:00 Legend Double Dagger 19.5 13.8 69 19 28 16.1 96.68     LegendNANA
17:00 Legend Double Dagger 16.8 15.3 91 20 22 8.1 96.67     LegendNANA
18:00 Legend Double Dagger 16.5 15.2 92 19 22 16.1 96.57     LegendNANA
19:00 Legend Double Dagger 16.8 15.5 92 19 24 16.1 96.50     LegendNANA
20:00 Legend Double Dagger 17.2 15.1 87 19 24 16.1 96.43     LegendNANA
21:00 Legend Double Dagger 17.6 14.5 82 18 30 16.1 96.31     LegendNANA
22:00 Legend Double Dagger 17.0 14.7 86 18 26 16.1 96.17     LegendNANA
23:00 Legend Double Dagger 17.6 14.0 79 19 35 16.1 96.08     LegendNANA

Notes on Data Quality.

Legend

  • E = Estimated
  • M = Missing
  • NA = Not Available
  • ‡ = Partner data that is not subject to review by the National Climate Archives
Date modified: